JCSAT-13

Last updated on Tue Sep 22 2026 00:03:12 GMT+0000 (Coordinated Universal Time)

1 38331U 12023A 26264.44235713 -.00000360 00000+0 00000+0 0 9993 2 38331 0.0167 182.7032 0002377 355.2958 105.5893 1.00269731 52516
UTC large
Height (km)
Speed (km/s)
/
Latitude / Longitude
Inclination (degrees)
Orbital Period (minutes)
Azimuth
Elevation
Range (km)
Doppler Factor

Next 0 passes for location: London (51.5072 / 0.1276)

No passes found over London.
JCSAT-13